Regional Weather Roundup
Issued by NWS Little Rock, AR

Home | Current Version | Previous Version | Graphics & Text | Print | Product List | Glossary On
Versions: 1 2 3 4 5 6 7 8 9 10 11 12 13 14 15 16 17 18 19 20 21 22 23 24 25 26 27 28 29 30 31 32 33 34 35 36 37 38 39 40 41 42 43 44 45 46 47 48 49 50
000
ASUS44 KLZK 291405
RWRLZK

WEATHER ROUNDUP FOR ARKANSAS
NATIONAL WEATHER SERVICE LITTLE ROCK AR
900 AM CDT TUE JUL 29 2014

NOTE: "FAIR" INDICATES FEW OR NO CLOUDS BELOW 12,000 FEET WITH NO
SIGNIFICANT WEATHER AND/OR OBSTRUCTIONS TO VISIBILITY.

ARZ001-003-010-029-291500-
NORTHWEST ARKANSAS

CITY           SKY/WX    TMP DP  RH WIND       PRES   REMARKS
FAYETTEVILLE   MOSUNNY   67  60  78 CALM      30.20S
FORT SMITH     SUNNY     74  63  68 E6        30.16R
HARRISON       SUNNY     68  58  70 SE6       30.20S
BENTONVILLE    SUNNY     72  57  60 SE9       30.21R
ROGERS         SUNNY     71  59  65 E12       30.21S
SILOAM SPGS    SUNNY     70  55  60 SE6       30.21R
HIGHFILL       SUNNY     70  61  73 E6        30.20S
SPRINGDALE     SUNNY     70  61  73 E8        30.22R
$$

ARZ004-005-016-291500-
NORTH CENTRAL ARKANSAS

CITY           SKY/WX    TMP DP  RH WIND       PRES   REMARKS
BATESVILLE     SUNNY     70  59  68 CALM      30.17R
FLIPPIN        SUNNY     68  55  64 CALM      30.19S
MTN HOME       SUNNY     68  57  68 CALM      30.18R
$$

ARZ040-041-291500-
WEST CENTRAL ARKANSAS

CITY           SKY/WX    TMP DP  RH WIND       PRES   REMARKS
MENA           SUNNY     75  63  64 CALM      30.19R
MOUNT IDA      SUNNY     72  63  73 CALM      30.16R
$$

ARZ009-017-025-026-028-291500-
NORTHEAST ARKANSAS

CITY           SKY/WX    TMP DP  RH WIND       PRES   REMARKS
CORNING        FAIR      68  57  68 NE8       30.16R
JONESBORO      SUNNY     69  58  67 NE8       30.15R
NEWPORT        SUNNY     70  60  70 N8        30.17R
WALNUT RIDGE   SUNNY     68  57  68 NE8       30.15R
BLYTHEVILLE    SUNNY     70  60  70 NE5       30.14S
$$

ARZ022-023-033-042-044-291500-
CENTRAL ARKANSAS

CITY           SKY/WX    TMP DP  RH WIND       PRES   REMARKS
LITTLE ROCK    MOSUNNY   74  61  63 NE7       30.17R
N LITTLE ROCK  MOSUNNY   74  65  73 NE7       30.17R
JACKSONVILLE   SUNNY     73  62  68 NE8       30.16R
SEARCY         SUNNY     73  61  66 NE9       30.17R
HOT SPRINGS    SUNNY     73  61  65 NE10      30.17R
RUSSELLVILLE   SUNNY     74  62  66 CALM      30.17R
CLINTON        FAIR      72  63  73 CALM      30.19R
$$

ARZ036-291500-
EAST ARKANSAS

CITY           SKY/WX    TMP DP  RH WIND       PRES   REMARKS
WEST MEMPHIS   SUNNY     72  63  73 NE7       30.13R
$$

ARZ050-053-066-070-073-291500-
SOUTHWEST ARKANSAS

CITY           SKY/WX    TMP DP  RH WIND       PRES   REMARKS
ARKADELPHIA    FAIR      75  66  73 VRB5      30.15R
CAMDEN         SUNNY     73  64  73 NE6       30.14R
TEXARKANA      SUNNY     74  64  71 NE8       30.14S
EL DORADO      SUNNY     74  67  78 N5        30.13S
DE QUEEN       SUNNY     76  65  68 E5        30.13R
$$

ARZ056-057-069-291500-
SOUTHEAST ARKANSAS

CITY           SKY/WX    TMP DP  RH WIND       PRES   REMARKS
PINE BLUFF     SUNNY     73  64  73 NE12      30.15R
STUTTGART      SUNNY     73  61  64 NE8       30.16R
MONTICELLO     MOSUNNY   74  66  76 NE8       30.13R

$$




USA.gov is the U.S. government's official web portal to all federal, state and local government web resources and services.